TimeEDT,TemperatureF,Dew PointF,Humidity,Sea Level PressureIn,VisibilityMPH,Wind Direction,Wind SpeedMPH,Gust SpeedMPH,PrecipitationIn,Events,Conditions,WindDirDegrees,DateUTC
12:15 AM,21.2,8.6,58,30.15,10.0,ESE,9.2,-,N/A,,Clear,120,2013-03-18 04:15:00
12:35 AM,21.2,8.6,58,30.15,10.0,ESE,6.9,-,N/A,,Clear,120,2013-03-18 04:35:00
12:55 AM,21.2,8.6,58,30.14,10.0,ESE,6.9,-,N/A,,Clear,110,2013-03-18 04:55:00
1:15 AM,21.2,8.6,58,30.13,10.0,ESE,12.7,-,N/A,,Clear,110,2013-03-18 05:15:00
1:35 AM,19.4,8.6,63,30.12,10.0,ESE,10.4,-,N/A,,Clear,110,2013-03-18 05:35:00
1:55 AM,19.4,8.6,63,30.11,10.0,ESE,12.7,-,N/A,,Clear,110,2013-03-18 05:55:00
2:15 AM,19.4,8.6,63,30.11,10.0,East,10.4,-,N/A,,Clear,100,2013-03-18 06:15:00
2:35 AM,19.4,8.6,63,30.09,10.0,East,11.5,-,N/A,,Clear,100,2013-03-18 06:35:00
2:55 AM,19.4,8.6,63,30.08,10.0,ESE,12.7,-,N/A,,Clear,110,2013-03-18 06:55:00
3:15 AM,19.4,8.6,63,30.07,10.0,ESE,10.4,-,N/A,,Clear,110,2013-03-18 07:15:00
3:35 AM,17.6,8.6,68,30.06,10.0,East,11.5,-,N/A,,Clear,100,2013-03-18 07:35:00
3:55 AM,17.6,8.6,68,30.06,10.0,East,10.4,17.3,N/A,,Clear,100,2013-03-18 07:55:00
4:15 AM,17.6,8.6,68,30.05,10.0,ESE,11.5,-,N/A,,Clear,110,2013-03-18 08:15:00
4:35 AM,17.6,8.6,68,30.03,10.0,East,13.8,-,N/A,,Clear,100,2013-03-18 08:35:00
4:55 AM,17.6,8.6,68,30.03,10.0,East,13.8,-,N/A,,Clear,100,2013-03-18 08:55:00
5:15 AM,17.6,10.4,73,30.01,10.0,ESE,12.7,17.3,N/A,,Clear,110,2013-03-18 09:15:00
5:35 AM,17.6,10.4,73,30.00,10.0,East,12.7,-,N/A,,Clear,100,2013-03-18 09:35:00
5:55 AM,17.6,10.4,73,29.99,10.0,East,15.0,-,N/A,,Clear,100,2013-03-18 09:55:00
6:15 AM,17.6,10.4,73,29.98,10.0,East,11.5,-,N/A,,Clear,100,2013-03-18 10:15:00
6:35 AM,17.6,10.4,73,29.98,10.0,East,11.5,-,N/A,,Clear,100,2013-03-18 10:35:00
6:55 AM,17.6,10.4,73,29.96,10.0,East,12.7,-,N/A,,Clear,100,2013-03-18 10:55:00
7:15 AM,19.4,10.4,68,29.94,10.0,East,13.8,-,N/A,,Clear,100,2013-03-18 11:15:00
7:35 AM,17.6,10.4,73,29.92,10.0,East,12.7,-,N/A,,Clear,90,2013-03-18 11:35:00
7:55 AM,19.4,10.4,68,29.92,10.0,East,10.4,-,N/A,,Clear,90,2013-03-18 11:55:00
8:15 AM,19.4,10.4,68,29.91,10.0,East,12.7,-,N/A,,Clear,100,2013-03-18 12:15:00
8:35 AM,19.4,12.2,74,29.90,10.0,East,10.4,-,N/A,,Clear,90,2013-03-18 12:35:00
8:55 AM,19.4,12.2,74,29.89,10.0,East,10.4,-,N/A,,Clear,90,2013-03-18 12:55:00
9:15 AM,21.2,12.2,68,29.90,10.0,ESE,5.8,-,N/A,,Clear,110,2013-03-18 13:15:00
9:35 AM,23.0,14.0,68,29.90,10.0,ESE,6.9,-,N/A,,Clear,110,2013-03-18 13:35:00
9:55 AM,24.8,14.0,64,29.88,10.0,East,8.1,-,N/A,,Clear,100,2013-03-18 13:55:00
10:15 AM,26.6,15.8,64,29.86,10.0,East,10.4,-,N/A,,Clear,100,2013-03-18 14:15:00
10:35 AM,28.4,15.8,59,29.83,10.0,ESE,13.8,-,N/A,,Clear,110,2013-03-18 14:35:00
10:55 AM,30.2,15.8,55,29.82,10.0,ESE,16.1,19.6,N/A,,Clear,110,2013-03-18 14:55:00
11:15 AM,30.2,15.8,55,29.79,10.0,ESE,16.1,23.0,N/A,,Clear,110,2013-03-18 15:15:00
11:35 AM,32.0,15.8,51,29.77,10.0,ESE,11.5,18.4,N/A,,Clear,110,2013-03-18 15:35:00
11:55 AM,33.8,15.8,48,29.75,10.0,ESE,12.7,19.6,N/A,,Scattered Clouds,110,2013-03-18 15:55:00
12:15 PM,35.6,17.6,48,29.73,10.0,East,11.5,20.7,N/A,,Scattered Clouds,100,2013-03-18 16:15:00
12:35 PM,35.6,17.6,48,29.71,10.0,East,16.1,-,N/A,,Mostly Cloudy,100,2013-03-18 16:35:00
12:55 PM,35.6,17.6,48,29.70,10.0,ESE,18.4,24.2,N/A,,Overcast,110,2013-03-18 16:55:00
1:15 PM,35.6,17.6,48,29.69,10.0,ESE,13.8,24.2,N/A,,Overcast,110,2013-03-18 17:15:00
1:35 PM,33.8,19.4,56,29.68,10.0,East,13.8,18.4,N/A,,Mostly Cloudy,100,2013-03-18 17:35:00
1:55 PM,33.8,19.4,56,29.67,10.0,ESE,12.7,21.9,N/A,,Overcast,110,2013-03-18 17:55:00
2:15 PM,33.8,21.2,60,29.65,4.0,ESE,9.2,-,N/A,,Overcast,120,2013-03-18 18:15:00
2:35 PM,33.8,21.2,60,29.64,7.0,ESE,13.8,18.4,N/A,,Overcast,110,2013-03-18 18:35:00
2:55 PM,33.8,24.8,70,29.64,5.0,ESE,10.4,19.6,N/A,,Overcast,120,2013-03-18 18:55:00
3:15 PM,30.2,24.8,80,29.63,1.2,SE,6.9,-,N/A,,Overcast,130,2013-03-18 19:15:00
3:35 PM,30.2,26.6,86,29.62,0.8,ESE,5.8,-,N/A,,Overcast,120,2013-03-18 19:35:00
3:55 PM,30.2,26.6,86,29.61,1.2,SE,9.2,-,N/A,,Overcast,140,2013-03-18 19:55:00
4:15 PM,30.2,26.6,86,29.61,1.0,SE,6.9,-,N/A,,Overcast,130,2013-03-18 20:15:00
4:35 PM,30.2,26.6,86,29.60,1.5,ESE,10.4,-,N/A,,Overcast,120,2013-03-18 20:35:00
4:55 PM,30.2,26.6,86,29.60,1.0,ESE,5.8,-,N/A,,Overcast,120,2013-03-18 20:55:00
5:15 PM,30.2,26.6,86,29.60,0.5,ESE,6.9,-,N/A,,Overcast,120,2013-03-18 21:15:00
5:35 PM,30.2,26.6,86,29.59,0.8,SE,5.8,-,N/A,,Overcast,130,2013-03-18 21:35:00
5:55 PM,30.2,26.6,86,29.58,1.2,SE,5.8,-,N/A,,Overcast,130,2013-03-18 21:55:00
6:15 PM,30.2,26.6,86,29.57,1.5,SE,6.9,-,N/A,,Overcast,140,2013-03-18 22:15:00
6:35 PM,30.2,26.6,86,29.57,2.0,SE,5.8,-,N/A,,Overcast,140,2013-03-18 22:35:00
6:55 PM,30.2,26.6,86,29.57,1.2,Calm,Calm,-,N/A,,Overcast,0,2013-03-18 22:55:00
7:15 PM,30.2,26.6,86,29.56,3.0,Calm,Calm,-,N/A,,Overcast,0,2013-03-18 23:15:00
7:35 PM,30.2,26.6,86,29.56,2.5,SSE,4.6,-,N/A,,Overcast,160,2013-03-18 23:35:00
7:55 PM,30.2,26.6,86,29.55,1.0,SE,3.5,-,N/A,,Overcast,130,2013-03-18 23:55:00
8:35 PM,30.2,26.6,86,29.55,4.0,Calm,Calm,-,N/A,,Overcast,0,2013-03-19 00:35:00
8:55 PM,30.2,26.6,86,29.54,5.0,SE,3.5,-,N/A,,Overcast,140,2013-03-19 00:55:00
9:15 PM,30.2,26.6,86,29.53,6.0,SE,3.5,-,N/A,,Overcast,130,2013-03-19 01:15:00
9:35 PM,30.2,26.6,86,29.53,5.0,Calm,Calm,-,N/A,,Overcast,0,2013-03-19 01:35:00
9:55 PM,30.2,26.6,86,29.53,5.0,Calm,Calm,-,N/A,,Overcast,0,2013-03-19 01:55:00
10:15 PM,30.2,28.4,93,29.52,6.0,South,8.1,-,N/A,,Overcast,180,2013-03-19 02:15:00
10:35 PM,30.2,26.6,86,29.53,3.0,SSW,8.1,-,N/A,,Overcast,200,2013-03-19 02:35:00
10:55 PM,30.2,26.6,86,29.52,10.0,WSW,9.2,-,N/A,,Overcast,250,2013-03-19 02:55:00
11:15 PM,32.0,26.6,80,29.52,10.0,West,17.3,24.2,N/A,,Overcast,260,2013-03-19 03:15:00
11:55 PM,33.8,26.6,75,29.52,10.0,West,16.1,20.7,N/A,,Overcast,260,2013-03-19 03:55:00